Cloud_Cover
5 5 5 13 13 5 7 6 0 14 1 0 0 0 1 5 3 5 5 5 3 5 6 89 100 100 72 98 79 99 100 91 99
28 11 5 5 5 8 5 4 1 13 0 0 0 0 4 5 5 5 5 2 0 4 0 0 1 18 20 21 53 33 51 63 1
19 37 5 4 3 0 0 1 0 0 0 0 0 0 0 5 0 0 2 0 0 0 0 0 0 0 0 0 2 3 0 0 2
0 4 4 1 4 2 0 11 0 0 0 0 0 0 0 0 0 0 0 0 0 0 1 5 2 0 0 0 0 0 0 0 5
0 0 3 5 4 0 0 0 0 0 0 0 0 0 0 4 0 0 0 0 0 4 5 4 5 5 0 5 0 0 0 0 0
0 0 0 0 0 0 0 0 0 0 1 2 0 3 0 0 1 5 5 0 2 5 5 6 35 5 5 5 0 0 0 0 0
7 0 5 0 0 0 0 0 0 0 2 0 0 3 0 0 0 0 0 0 0 5 5 100 100 39 5 4 5 0 0 0 0
100 3 44 0 1 0 0 0 0 0 5 0 0 5 5 4 0 0 0 5 8 5 22 100 82 5 13 3 0 0 0 2 0
0 0 0 9 48 36 0 1 4 5 5 5 5 5 5 5 3 5 5 7 10 24 100 100 8 64 44 0 0 0 0 12 1
0 0 0 0 2 3 2 11 35 5 5 5 5 5 5 5 5 5 88 48 54 100 100 100 69 48 2 1 1 0 0 0 1
0 0 1 5 34 5 14 55 46 14 31 13 6 5 5 5 28 100 7 82 100 100 100 100 16 5 5 0 0 0 0 0 5
5 5 5 5 5 5 52 63 62 33 62 87 7 5 5 76 16 5 38 44 100 100 100 8 10 35 22 43 1 0 1 1 0
5 5 5 16 53 52 39 52 52 66 93 42 8 12 18 5 6 35 100 100 100 100 100 5 10 1 5 37 56 92 18 1 1
29 88 85 73 36 22 31 25 5 5 11 6 10 5 5 6 28 91 100 100 100 100 98 79 10 5 5 4 5 30 100 100 100
100 100 100 100 100 100 99 53 5 17 5 12 5 4 5 5 9 36 95 85 99 28 57 17 12 10 5 5 5 3 4 99 86
100 100 100 100 100 100 100 100 100 100 100 99 100 100 100 100 98 100 81 72 92 6 49 37 98 51 75 61 31 5 5 5 15
100 100 100 100 100 100 100 100 100 100 100 100 100 100 87 82 100 100 17 60 14 6 11 94 55 73 49 27 26 100 100 38 5
100 100 100 100 100 100 100 100 100 100 100 100 93 94 98 100 100 100 100 92 91 92 81 52 8 74 50 100 97 100 75 6 48
100 100 100 100 100 100 100 100 100 99 90 100 95 96 100 100 100 100 100 98 100 96 40 12 75 70 81 94 80 21 9 5 8
100 100 100 100 100 100 100 100 100 100 100 100 100 100 100 100 100 100 100 100 100 79 49 100 95 99 100 52 83 86 5 7 10